This demonstration page uses our WeatherBlox Daily Observations layout. Learn more.

Left ArrowRight Arrow

38.20091, -84.87328

Hourly Observations for August 1, 2020

Temp ( °F °C ) Dew Point ( °F °C ) Humidity (%) Winds ( mph kmh ) Pressure ( in mb ) Visibility ( mi km ) Precip ( " mm )
12:53 am 00:53 Clear 72 22.2 69 20.6 91 91 ESE 5 7 29.83 1010 10 16 0.00 0.00
1:53 am 01:53 Partly Cloudy 71 21.7 69 20.6 94 94 SSE 3 6 29.83 1010 10 16 0.00 0.00
2:53 am 02:53 Mostly Cloudy 72 22.2 69 20.6 91 91 ESE 3 6 29.81 1009 10 16 0.00 0.00
3:42 am 03:42 Mostly Cloudy with Light Rain 72 22.2 69 20.6 91 91 SSE 5 7 29.81 1009 10 16 0.01 0.25
3:50 am 03:50 Mostly Cloudy with Light Rain 72 22 70 21 94 94 S 5 7 29.81 1009 9 14 0.01 0.25
3:53 am 03:53 Mostly Cloudy with Light Rain 72 22.2 70 21.1 94 94 S 6 9 29.81 1009 9 14 0.01 0.25
4:00 am 04:00 Cloudy with Light Rain 72 22.2 70 21.1 94 94 SSE 6 9 29.81 1009 9 14 0.00 0.00
4:11 am 04:11 Cloudy with Light Rain 72 22.2 70 21.1 94 94 S 5 7 29.81 1009 10 16 0.01 0.25
4:30 am 04:30 Mostly Cloudy with Light Rain 72 22.2 70 21.1 94 94 S 7 11 29.81 1009 10 16 0.01 0.25
4:44 am 04:44 Mostly Cloudy with Light Rain 72 22.2 70 21.1 94 94 S 7 11 29.82 1010 10 16 0.02 0.51
4:53 am 04:53 Mostly Cloudy with Light Rain 73 22.8 70 21.1 90 90 S 6 9 29.81 1010 10 16 0.02 0.51
5:37 am 05:37 Partly Cloudy with Light Rain 73 22.8 71 21.7 94 94 S 7 11 29.80 1009 10 16 0.02 0.51
5:53 am 05:53 Mostly Clear with Light Rain 73 22.8 71 21.7 94 94 S 6 9 29.80 1009 10 16 0.02 0.51
6:09 am 06:09 Mostly Cloudy with Light Rain 73 22.8 71 21.7 94 94 S 5 7 29.80 1009 10 16 0.00 0.00
6:41 am 06:41 Partly Cloudy 73 22.8 71 21.7 94 94 S 3 6 29.80 1009 10 16 0.01 0.25
6:53 am 06:53 Sunny 73 22.8 70 21.1 90 90 SE 3 6 29.80 1009 10 16 0.01 0.25
7:04 am 07:04 Mostly Sunny 73 22.8 70 21.1 90 90 SSE 6 9 29.80 1009 10 16 0.00 0.00
7:53 am 07:53 Mostly Cloudy 74 23.3 72 22.2 94 94 SSE 5 7 29.82 1010 10 16 0.00 0.00
8:53 am 08:53 Mostly Cloudy 74 23.3 71 21.7 91 91 SSE 7 11 29.82 1010 10 16 0.00 0.00
9:19 am 09:19 Cloudy 74 23.3 71 21.7 91 91 SE 5 7 29.82 1010 10 16 0.00 0.00
9:53 am 09:53 Cloudy 76 24.4 72 22.2 88 88 S 5 7 29.83 1010 10 16 0.00 0.00
10:53 am 10:53 Mostly Cloudy 79 26.1 73 22.8 82 82 S 8 13 29.82 1010 10 16 0.00 0.00
11:17 am 11:17 Cloudy 80 26.7 73 22.8 79 79 S 13 20 29.81 1010 10 16 0.00 0.00
11:35 am 11:35 Cloudy 81 27.2 74 23.3 79 79 S 8 13 29.80 1009 10 16 0.00 0.00
11:49 am 11:49 Cloudy 81 27 72 22 74 74 SSW 9 15 29.80 1009 10 16 0.00 0.00
11:53 am 11:53 Cloudy 81 27.2 72 22.2 74 74 SSW 10 17 29.82 1010 10 16 0.00 0.00
12:00 pm 12:00 Mostly Cloudy 82 27.8 73 22.8 74 74 SSW 10 17 29.80 1009 10 16 0.00 0.00
12:53 pm 12:53 Mostly Cloudy 83 28.3 71 21.7 67 67 SSW 14 22 29.80 1009 10 16 0.00 0.00
1:53 pm 13:53 Partly Cloudy 84 28.9 72 22.2 67 67 S 12 19 29.78 1008 10 16 0.00 0.00
2:53 pm 14:53 Cloudy 83 28.3 70 21.1 65 65 S 13 20 29.77 1008 10 16 0.00 0.00
3:53 pm 15:53 Cloudy 84 28.9 70 21.1 63 63 SSW 17 28 29.75 1007 10 16 0.00 0.00
4:53 pm 16:53 Partly Cloudy 84 28.9 69 20.6 61 61 SSW 18 30 29.75 1007 10 16 0.00 0.00
5:53 pm 17:53 Cloudy with Light Rain 80 26.7 71 21.7 74 74 SW 14 22 29.75 1008 9 14 0.00 0.00
6:53 pm 18:53 Cloudy 78 25.6 69 20.6 74 74 SSW 12 19 29.76 1008 10 16 0.00 0.00
7:53 pm 19:53 Cloudy with Light Rain 76 24.4 71 21.7 85 85 SSW 12 19 29.76 1008 7 11 0.00 0.00
8:40 pm 20:40 Cloudy with Heavy Rain 75 23.9 71 21.7 88 88 WSW 7 11 29.77 1008 2 3 0.07 1.78
8:53 pm 20:53 Cloudy with Light Rain 75 23.9 72 22.2 90 90 VRB 5 7 29.77 1008 6 10 0.09 2.29
9:22 pm 21:22 Mostly Cloudy with Light Rain 75 23.9 71 21.7 88 88 SW 13 20 29.77 1008 9 14 0.00 0.00
9:29 pm 21:29 Mostly Cloudy with Light Rain 75 23.9 71 21.7 88 88 SSW 8 13 29.77 1008 10 16 0.00 0.00
9:48 pm 21:48 Cloudy 75 24 72 22 89 89 SSW 7 11 29.77 1008 10 16 0.00 0.00
9:53 pm 21:53 Cloudy 75 23.9 72 22.2 90 90 SW 8 13 29.78 1008 10 16 0.00 0.00
10:06 pm 22:06 Cloudy with Heavy Rain 74 23.3 72 22.2 94 94 WSW 6 9 29.77 1008 2 3 0.05 1.27
10:18 pm 22:18 Cloudy with Light Rain 74 23.3 71 21.7 91 91 SW 9 15 29.77 1008 3 4 0.09 2.29
10:25 pm 22:25 Cloudy with Light Rain 74 23.3 71 21.7 91 91 SW 13 20 29.78 1009 8 13 0.09 2.29
10:34 pm 22:34 Cloudy 74 23.3 70 21.1 88 88 WSW 15 24 29.79 1009 8 13 0.09 2.29
10:41 pm 22:41 Cloudy 73 22.8 70 21.1 90 90 WSW 12 19 29.79 1009 10 16 0.09 2.29
10:53 pm 22:53 Cloudy 73 22.8 70 21.1 90 90 WSW 12 19 29.80 1009 10 16 0.09 2.29
11:00 pm 23:00 Cloudy 73 22.8 70 21.1 90 90 SW 12 19 29.79 1009 10 16 0.00 0.00
11:22 pm 23:22 Cloudy 73 22.8 70 21.1 90 90 SSW 13 20 29.80 1009 10 16 0.00 0.00
11:53 pm 23:53 Cloudy 73 22.8 69 20.6 87 87 SSW 15 24 29.81 1009 10 16 0.00 0.00

Powered by AerisWeather